SCP
0 0 0 0 0 0 0 0 0 0 0 0 0 0 0 0 0 0 0 0 0 0 0 0 0 0 0 1 1 1 1 1 1 1 0 0 0 0 0 0 0 0 0 0
0 0 0 0 0 0 0 0 0 0 0 0 0 0 0 0 0 0 0 0 0 0 0 0 0 0 1 1 1 1 1 1 1 1 0 0 0 0 0 0 0 0 0 0
0 0 0 0 0 0 0 0 0 0 0 0 0 0 0 0 0 0 0 0 0 0 0 0 0 0 1 1 1 1 1 1 1 1 0 0 0 0 0 0 0 0 0 0
0 0 0 0 0 0 0 0 0 0 0 0 0 0 0 0 0 0 0 0 0 0 0 0 0 0 0 1 1 1 1 1 1 1 0 0 0 0 0 0 0 0 0 0
0 0 0 0 0 0 0 0 0 0 0 0 0 0 0 0 0 0 0 0 0 0 0 0 0 1 1 1 1 1 1 1 1 1 1 0 0 0 0 0 0 0 0 0
0 0 0 0 0 0 0 0 0 0 0 0 0 0 0 0 0 0 0 0 0 0 1 1 1 1 1 1 1 1 1 1 1 1 1 1 0 0 0 0 0 0 0 0
0 0 0 0 0 0 0 0 0 0 0 0 0 0 0 0 0 0 0 0 0 0 1 1 1 1 1 1 1 1 1 1 1 1 1 1 0 0 0 0 0 0 0 0
0 0 0 0 0 0 0 0 0 0 0 0 0 0 0 0 0 0 0 0 0 0 1 1 1 1 1 1 1 1 1 1 1 1 1 1 1 0 0 0 0 0 0 0
0 0 0 0 0 0 0 0 0 0 0 0 0 0 0 0 0 0 0 0 0 0 0 1 1 1 1 1 1 1 1 1 1 1 1 1 1 1 0 0 0 0 0 0
0 0 0 0 0 0 0 0 0 0 0 0 0 0 0 0 0 0 0 0 0 1 0 1 1 1 1 1 1 1 1 1 1 1 1 1 1 1 0 0 0 0 0 0
0 0 0 0 0 0 0 0 0 0 0 0 0 0 0 0 0 0 0 0 0 1 1 1 1 1 1 1 1 1 1 1 1 1 1 1 1 1 0 0 0 0 0 0
0 0 0 0 0 0 0 0 0 0 0 0 0 0 0 0 0 0 0 0 1 1 1 1 1 1 1 1 1 1 1 1 1 1 1 1 1 1 1 0 0 0 0 0
0 0 0 0 0 0 0 0 0 0 0 0 0 0 0 0 0 0 0 1 1 1 1 1 1 1 1 1 1 1 1 1 1 1 1 1 1 1 1 1 1 1 0 0
0 0 0 0 0 0 0 0 0 0 0 0 0 0 0 0 0 0 1 1 1 1 1 1 1 1 1 1 1 1 1 1 1 1 2 1 1 1 1 1 1 1 1 1
0 0 0 0 0 0 0 0 0 0 0 0 0 0 0 0 0 0 1 1 1 1 1 1 1 1 2 2 2 2 2 1 2 2 2 2 2 1 1 1 1 1 1 1
0 0 0 0 0 0 0 0 0 0 0 0 0 0 0 0 0 0 1 1 1 1 1 1 1 1 2 2 2 2 2 2 2 2 2 2 2 2 1 1 1 1 1 1
0 0 0 0 0 0 0 0 0 0 0 0 0 0 0 0 0 0 0 1 1 1 1 1 1 1 2 2 2 2 2 2 2 2 2 2 2 2 2 1 1 1 1 1
0 0 0 0 0 0 0 0 0 0 0 0 0 0 0 0 0 0 0 1 1 1 1 1 1 1 1 2 2 2 2 2 2 2 2 2 2 2 1 1 1 1 1 1
0 0 0 0 0 0 0 0 0 0 0 0 0 0 0 0 0 0 1 1 1 1 1 1 1 1 1 2 2 2 2 2 2 3 2 2 2 2 2 1 1 1 1 1
0 0 0 0 0 0 0 0 0 0 0 0 0 0 0 0 0 0 1 1 1 1 1 1 1 1 1 2 2 2 2 2 2 3 2 2 2 2 2 2 1 1 1 1
0 0 0 0 0 0 0 0 0 0 0 0 0 0 0 1 1 1 1 1 1 1 1 1 1 2 2 2 2 2 2 2 2 2 2 2 2 2 2 2 1 1 1 1
0 0 0 0 0 0 0 0 0 1 1 1 1 1 1 1 1 1 1 1 1 1 1 1 2 2 2 2 2 2 2 2 2 2 2 2 2 2 2 2 1 1 1 1
0 0 0 0 0 0 0 1 1 1 1 1 1 1 1 1 1 1 1 1 1 1 1 1 2 2 1 2 2 2 2 2 2 2 2 2 2 2 2 2 2 1 1 1
0 0 0 0 0 0 0 1 1 1 1 1 1 1 1 1 1 1 1 1 1 1 1 1 2 2 1 1 2 2 2 2 2 2 2 2 2 2 2 2 1 1 1 1
0 0 0 0 0 0 0 0 0 1 1 1 1 1 1 1 1 1 1 1 1 1 1 1 1 1 1 1 1 2 2 2 2 2 2 2 2 2 1 1 1 1 1 1
0 0 0 0 0 0 0 0 0 0 0 0 1 1 1 1 0 0 1 1 1 1 1 1 1 1 1 1 1 2 2 2 2 2 2 2 1 1 1 1 1 1 0 0
Wind_Speed
7 10 10 8 6 4 3 5 4 2 3 6 7 5 6 10 11 11 11 11 11 11 10 11 11 11 10 10 10 10 9 9 7 5 5 5 4 4 4 3 3 4 4 4
10 12 7 4 5 6 6 7 5 3 3 6 6 6 5 9 11 11 11 11 11 11 10 11 11 11 12 11 11 11 10 10 9 6 4 3 3 3 3 2 2 4 4 4
14 6 5 7 9 9 8 8 5 3 4 7 6 7 7 8 9 9 10 10 11 11 11 11 11 12 12 12 12 10 10 10 9 7 5 4 3 3 3 4 3 3 4 4
12 7 7 10 10 10 9 5 5 5 7 5 6 6 5 7 9 9 11 11 11 11 11 11 12 12 12 12 11 11 10 10 9 9 7 7 5 4 3 3 2 3 3 3
10 9 11 11 10 10 5 2 5 7 7 7 6 8 2 6 6 7 9 10 10 11 11 11 11 11 11 11 10 10 10 9 9 9 7 7 6 4 3 3 3 3 3 3
8 7 8 9 7 6 5 6 5 8 9 10 6 8 4 2 2 3 6 7 8 9 10 10 10 10 9 10 10 10 10 9 9 9 8 8 6 5 4 4 3 4 3 3
11 10 8 7 9 9 10 10 9 10 10 8 3 7 4 1 0 1 2 4 7 8 9 10 10 10 10 10 11 11 11 10 10 10 9 8 7 6 6 5 5 4 3 3
14 14 12 10 11 10 13 14 12 10 9 6 7 7 3 2 1 0 1 2 5 7 8 9 10 10 10 10 11 11 11 10 11 10 9 8 8 6 5 5 4 4 3 3
10 10 9 8 8 10 11 13 12 11 10 9 6 5 5 3 2 2 2 3 4 6 7 8 9 10 10 10 11 11 11 10 10 10 9 8 8 7 5 5 5 4 3 3
7 8 9 8 8 4 8 9 8 11 10 11 9 9 5 3 2 2 2 3 4 5 6 7 8 9 9 10 10 9 10 10 10 9 9 7 8 7 6 5 5 4 4 3
9 9 9 10 10 10 9 9 9 9 10 11 10 5 1 1 1 1 1 2 3 5 6 6 6 7 8 9 9 9 9 10 9 9 8 8 8 7 7 6 5 5 4 4
8 9 8 9 4 3 8 10 11 10 9 10 11 4 5 2 1 1 1 2 3 3 4 5 6 6 7 8 9 9 8 8 8 8 8 8 8 8 7 6 6 5 5 4
6 8 10 11 10 8 8 8 9 10 9 10 12 5 6 3 2 2 1 2 3 3 4 5 5 5 6 7 7 8 8 8 7 8 8 8 8 8 7 6 6 5 5 4
6 8 10 11 6 8 10 9 9 11 10 10 11 6 2 1 0 1 1 2 3 3 3 4 4 4 5 6 6 6 7 7 7 7 8 8 7 7 7 6 6 6 5 5
6 8 8 6 4 5 7 9 10 12 11 11 9 7 2 1 1 1 1 2 2 3 3 3 3 4 4 5 5 5 5 6 6 7 7 8 7 7 6 6 6 5 5 5
3 6 7 8 7 7 9 9 10 10 10 10 9 6 1 2 2 1 1 1 1 1 2 2 3 3 4 5 5 5 5 5 6 7 7 7 7 7 6 6 6 6 5 5
4 5 7 9 7 9 12 9 10 9 7 8 9 2 1 1 1 1 1 1 1 1 1 2 2 3 3 5 5 6 5 5 6 7 6 7 7 7 7 6 6 6 5 5
4 5 6 7 7 13 2 1 3 5 4 3 2 1 1 2 1 1 2 2 3 3 2 2 2 3 3 4 5 5 5 6 6 6 6 7 7 7 7 6 6 6 5 5
4 5 6 8 11 9 5 3 3 5 5 2 2 0 2 2 2 3 4 5 5 5 4 3 3 3 3 3 5 6 6 5 5 5 6 6 6 7 7 6 6 5 5 5
5 6 8 8 11 11 3 4 1 5 6 3 0 1 1 2 5 1 5 6 6 6 5 4 3 2 3 3 5 6 6 6 6 6 5 5 5 6 7 7 6 5 5 5
8 7 10 11 10 6 4 1 4 8 1 3 1 1 2 3 5 4 4 5 5 5 5 4 3 2 2 3 5 6 6 7 6 6 6 6 6 7 7 7 6 6 5 5
6 6 8 8 11 5 4 1 2 4 5 2 2 3 4 4 3 3 4 5 5 5 5 4 3 2 1 2 4 5 6 5 5 6 6 6 6 6 6 7 6 6 6 6
4 4 3 4 2 5 3 3 4 4 3 3 3 3 3 4 3 3 4 4 5 5 5 4 3 2 2 2 3 5 4 4 5 6 6 6 6 5 6 7 7 7 6 5
3 2 4 4 2 1 2 2 3 3 3 4 3 4 4 4 4 4 4 4 4 5 5 4 3 2 2 2 2 3 4 4 5 6 5 5 5 6 5 5 5 5 5 5
3 3 5 7 4 3 1 2 4 4 4 4 4 4 4 4 4 4 4 4 4 4 4 3 3 2 3 2 2 2 3 4 5 5 5 4 5 6 5 4 2 3 2 1
6 6 7 6 3 5 4 4 5 5 5 5 5 5 4 4 3 4 4 4 4 4 4 3 3 2 2 2 2 2 3 5 6 5 5 4 4 5 5 5 4 5 3 4
Wind_Direction
204 224 219 214 232 275 248 246 236 205 172 229 237 236 191 184 198 199 197 199 201 205 197 193 195 196 194 192 191 192 195 186 190 192 200 199 200 201 204 211 203 215 222 215
209 223 220 213 200 213 223 237 231 189 175 245 248 242 209 193 203 205 202 202 204 200 194 193 195 196 197 194 193 191 193 191 196 192 203 212 218 213 207 220 207 223 223 218
225 209 177 197 200 213 224 243 246 227 184 216 247 228 204 190 202 205 211 210 208 202 198 194 196 198 198 196 194 194 192 190 197 193 197 197 197 217 200 202 202 213 221 215
226 198 192 209 210 224 225 230 245 225 230 215 240 259 189 187 194 203 209 209 207 203 201 196 195 196 198 196 192 192 189 191 191 195 205 208 214 217 210 209 187 190 209 217
204 200 206 216 218 228 240 200 220 227 243 251 227 264 194 172 203 202 205 209 207 201 201 197 196 194 194 191 188 185 186 189 190 197 201 211 219 215 199 195 181 208 198 214
213 198 223 224 215 213 167 175 194 226 241 243 243 263 252 179 223 210 188 198 205 200 196 193 191 187 187 187 185 182 180 185 189 197 202 210 214 213 207 203 195 205 199 205
206 202 201 206 193 185 204 216 222 222 226 237 204 249 265 37 36 279 199 183 192 193 188 186 185 182 182 184 184 182 180 184 189 197 203 205 209 208 209 214 202 213 210 200
206 204 196 203 220 209 215 232 241 249 245 221 184 238 240 111 94 248 209 176 178 181 179 180 181 180 182 184 184 184 182 186 189 195 199 202 205 211 211 209 219 204 216 217
217 209 181 201 224 236 215 230 249 255 260 263 228 220 210 183 186 171 150 150 159 167 172 176 175 180 182 184 185 186 183 186 191 192 191 196 201 210 210 202 212 213 207 206
240 222 185 178 193 210 253 231 229 243 244 248 238 233 236 213 217 173 155 150 147 159 168 171 173 179 180 180 180 183 184 188 191 191 194 192 195 199 203 209 209 214 210 212
235 228 191 191 211 201 197 212 231 241 250 253 252 233 91 276 275 224 150 143 154 166 166 170 171 176 176 173 171 176 180 185 189 191 192 193 193 195 197 200 203 205 205 200
219 233 217 202 178 269 231 224 222 235 237 249 266 245 97 78 36 79 119 129 139 152 159 161 164 169 172 174 174 173 177 180 183 185 187 189 190 192 195 192 193 192 191 192
203 225 216 200 191 198 214 217 230 241 242 244 251 230 118 104 75 73 100 130 132 142 156 158 157 162 170 172 173 176 180 181 180 180 182 181 185 187 191 187 182 181 181 183
246 233 241 241 221 192 202 205 216 234 238 239 246 253 166 117 4 43 81 138 140 142 150 162 159 164 170 172 172 178 181 179 178 180 180 179 184 186 183 179 178 176 175 177
245 228 231 254 253 230 223 217 216 231 250 257 252 248 274 315 302 359 103 136 149 150 155 162 166 168 174 172 174 177 178 175 177 181 181 178 177 178 176 172 172 171 173 173
253 237 220 226 224 228 234 231 227 234 242 248 252 246 14 11 27 52 82 128 164 178 182 174 176 174 179 181 179 177 180 175 177 182 180 171 171 170 174 176 174 169 169 171
210 223 228 226 208 228 230 230 230 227 236 246 246 253 37 345 351 324 322 329 349 328 265 216 196 196 192 192 187 186 181 176 179 182 180 172 172 172 174 175 171 173 172 174
231 232 233 229 211 234 199 106 242 228 222 248 278 9 321 320 307 316 9 13 348 335 321 291 243 208 200 196 188 187 179 177 179 178 179 178 175 174 174 173 173 173 176 181
233 233 240 235 229 231 182 175 209 220 214 214 229 282 332 344 221 148 60 13 346 331 322 305 276 238 202 196 184 179 179 179 179 177 178 180 179 177 174 175 179 176 175 176
176 226 243 235 244 239 174 125 203 241 208 122 243 266 323 287 249 96 19 349 340 340 333 317 283 240 203 192 184 180 178 179 184 183 176 174 176 176 180 176 179 177 177 178
189 203 229 235 241 239 67 81 208 232 98 62 341 302 284 310 336 348 332 336 341 338 327 314 290 252 213 197 189 188 188 189 185 176 171 174 175 180 179 173 174 174 176 172
234 221 220 234 239 220 63 210 264 1 19 360 329 321 319 325 331 327 331 333 335 338 335 328 316 294 265 220 202 198 199 191 177 172 173 172 176 182 171 169 168 172 173 172
254 302 293 277 313 50 28 5 359 331 322 320 313 324 314 305 312 319 324 328 333 335 338 333 321 306 282 241 221 213 200 182 175 173 172 168 168 171 171 172 170 174 179 185
196 266 266 259 221 13 352 349 343 337 327 315 312 306 298 298 303 308 316 321 328 333 333 333 325 321 311 288 258 232 206 183 178 178 172 166 165 165 166 171 172 178 181 184
276 243 248 251 263 274 265 321 337 336 327 318 309 303 299 296 297 303 305 311 319 326 328 330 327 336 316 298 276 246 207 186 178 173 165 169 171 157 155 152 139 176 159 176
244 255 263 274 280 282 292 312 313 310 311 308 307 309 307 299 295 301 306 315 317 319 321 321 319 317 309 301 286 266 215 189 178 171 164 171 166 156 154 152 138 71 89 93